EW3370 Weather Reports


Display with metric or nautical units.
time (UTC)temp
F
wind
direction
speed
MPH
gust
MPH
rain 1hr
in
rain 24hr
in
rain mn
in
humidity
%
barometer
mb
20260905091528 63 33 1.0 4.0 0.00 0.00 0.00 89 1012.1
20260905091026 63 30 0.0 0.0 0.00 0.00 0.00 89 1012.2
20260905090534 63 30 0.0 3.0 0.00 0.00 0.00 89 1012.3
20260905090017 63 30 0.0 3.0 0.00 0.00 0.00 89 1012.3
20260905085523 63 30 1.0 4.0 0.00 0.00 0.00 89 1012.4
20260905085030 64 28 0.0 4.0 0.00 0.00 0.00 89 1012.5
20260905084536 64 44 2.0 4.0 0.00 0.00 0.00 89 1012.5
20260905084020 64 44 0.0 1.0 0.00 0.00 0.00 89 1012.6
20260905083523 63 44 0.0 0.0 0.00 0.00 0.00 89 1012.6
20260905083031 63 44 0.0 0.0 0.00 0.00 0.00 89 1012.6
20260905082537 63 44 0.0 0.0 0.00 0.00 0.00 89 1012.6
20260905082045 63 44 0.0 0.0 0.00 0.00 0.00 89 1012.7
20260905081550 64 44 0.0 0.0 0.00 0.00 0.00 89 1012.9
20260905081038 64 44 0.0 0.0 0.00 0.00 0.00 89 1012.9
20260905080521 64 44 0.0 0.0 0.00 0.00 0.00 88 1012.9
20260905080023 64 19 0.0 0.0 0.00 0.00 0.00 88 1012.9
20260905075533 64 19 0.0 0.0 0.00 0.00 0.00 88 1012.9
20260905075019 64 19 0.0 2.0 0.00 0.00 0.00 88 1012.9
20260905074523 64 16 0.0 4.0 0.00 0.00 0.00 88 1012.9
20260905074037 64 16 0.0 4.0 0.00 0.00 0.00 88 1012.9
20260905073519 65 16 2.0 4.0 0.00 0.00 0.00 89 1012.9
20260905073020 65 232 0.0 0.0 0.00 0.00 0.00 89 1012.9
20260905072524 65 232 0.0 0.0 0.00 0.00 0.00 88 1012.9
20260905072029 65 232 0.0 0.0 0.00 0.00 0.00 88 1012.9
20260905071538 65 232 0.0 0.0 0.00 0.00 0.00 88 1012.9
20260905071022 65 232 0.0 0.0 0.00 0.00 0.00 88 1013.0
20260905070523 65 232 0.0 0.0 0.00 0.00 0.00 88 1012.9
20260905070031 65 231 0.0 0.0 0.00 0.00 0.00 88 1013.0
20260905065538 65 232 0.0 0.0 0.00 0.00 0.00 88 1013.0
20260905065049 65 232 0.0 0.0 0.00 0.00 0.00 87 1013.0
20260905064533 65 232 0.0 0.0 0.00 0.00 0.00 87 1013.0
20260905064043 66 231 0.0 0.0 0.00 0.00 0.00 87 1013.0
20260905063524 66 231 0.0 0.0 0.00 0.00 0.00 88 1013.0
20260905063025 66 231 0.0 0.0 0.00 0.00 0.00 88 1012.9
20260905062527 66 231 0.0 0.0 0.00 0.00 0.00 88 1012.9
20260905062030 66 231 0.0 0.0 0.00 0.00 0.00 88 1012.9
20260905061535 66 231 0.0 0.0 0.00 0.00 0.00 88 1012.8
20260905061020 66 231 0.0 0.0 0.00 0.00 0.00 88 1012.8
20260905060528 66 231 0.0 0.0 0.00 0.00 0.00 88 1012.8
20260905060036 66 230 0.0 0.0 0.00 0.00 0.00 88 1012.7
20260905055519 66 230 0.0 0.0 0.00 0.00 0.00 88 1012.7
20260905055046 66 230 0.0 0.0 0.00 0.00 0.00 87 1012.7
20260905054526 66 230 0.0 0.0 0.00 0.00 0.00 87 1012.6
20260905054034 67 229 0.0 0.0 0.00 0.00 0.00 88 1012.7
20260905053523 67 229 0.0 0.0 0.00 0.00 0.00 88 1012.7
20260905053023 67 229 0.0 0.0 0.00 0.00 0.00 88 1012.7
20260905052528 67 229 0.0 0.0 0.00 0.00 0.00 88 1012.7
20260905052035 67 229 0.0 0.0 0.00 0.00 0.00 88 1012.7
20260905051521 67 229 0.0 0.0 0.00 0.00 0.00 87 1012.6
20260905051027 67 229 0.0 0.0 0.00 0.00 0.00 86 1012.7
20260905050529 67 229 0.0 0.0 0.00 0.00 0.00 87 1012.7
20260905050034 67 229 0.0 0.0 0.00 0.00 0.00 86 1012.7
20260905045519 67 229 0.0 0.0 0.00 0.00 0.00 85 1012.7
20260905045021 68 229 0.0 0.0 0.00 0.00 0.00 86 1012.6
20260905044526 68 229 0.0 0.0 0.00 0.00 0.00 86 1012.6
20260905044053 68 229 0.0 0.0 0.00 0.00 0.00 86 1012.5
20260905043522 68 229 0.0 0.0 0.00 0.00 0.00 86 1012.4
20260905043023 68 229 0.0 0.0 0.00 0.00 0.00 86 1012.4
20260905042538 68 229 0.0 0.0 0.00 0.00 0.00 85 1012.3
20260905042025 68 229 0.0 0.0 0.00 0.00 0.00 85 1012.2
20260905041527 68 229 0.0 0.0 0.00 0.00 0.00 85 1012.2
20260905041031 68 228 0.0 0.0 0.00 0.00 0.00 84 1012.1
20260905040540 68 228 0.0 0.0 0.00 0.00 0.00 84 1012.2
20260905040047 69 228 0.0 0.0 0.00 0.00 0.00 84 1012.1
20260905035528 69 228 0.0 2.0 0.00 0.00 0.00 84 1012.0
20260905035028 69 228 0.0 3.0 0.00 0.00 0.00 84 1012.1
20260905034530 69 228 0.0 3.0 0.00 0.00 0.00 84 1012.0
20260905034033 69 227 0.0 0.0 0.00 0.00 0.00 84 1011.9
20260905033532 69 228 0.0 1.0 0.00 0.00 0.00 83 1011.9
20260905033023 69 228 0.0 1.0 0.00 0.00 0.00 83 1012.0
20260905032527 69 215 0.0 3.0 0.00 0.00 0.00 83 1011.9
20260905032056 69 215 0.0 3.0 0.00 0.00 0.00 83 1011.8
20260905031539 69 216 0.0 3.0 0.00 0.00 0.00 83 1011.8
20260905031021 69 238 0.0 3.0 0.00 0.00 0.00 82 1011.6
20260905030524 69 238 1.0 3.0 0.00 0.00 0.00 82 1011.5
20260905030029 69 229 0.0 2.0 0.00 0.00 0.00 82 1011.6
20260905025539 70 229 0.0 4.0 0.00 0.00 0.00 82 1011.5
20260905025026 70 229 0.0 4.0 0.00 0.00 0.00 82 1011.5
20260905024552 70 235 0.0 4.0 0.00 0.00 0.00 81 1011.5
20260905024034 70 254 0.0 3.0 0.00 0.00 0.00 81 1011.5
20260905023538 70 254 0.0 3.0 0.00 0.00 0.00 80 1011.5
20260905023025 70 242 1.0 4.0 0.00 0.00 0.00 80 1011.4
20260905022528 70 225 0.0 4.0 0.00 0.00 0.00 80 1011.5
20260905022033 71 223 0.0 3.0 0.00 0.00 0.00 80 1011.6
20260905021543 71 223 1.0 3.0 0.00 0.00 0.00 79 1011.6
20260905021027 71 229 0.0 3.0 0.00 0.00 0.00 78 1011.6
20260905020534 71 260 1.0 3.0 0.00 0.00 0.00 78 1011.5
20260905020039 71 250 0.0 5.0 0.00 0.00 0.00 77 1011.4
20260905015522 72 272 2.0 5.0 0.00 0.00 0.00 77 1011.4
20260905015025 72 245 1.0 5.0 0.00 0.00 0.00 77 1011.4
20260905014531 72 209 1.0 5.0 0.00 0.00 0.00 76 1011.3
20260905014059 72 219 1.0 4.0 0.00 0.00 0.00 76 1011.4
20260905013522 73 217 1.0 5.0 0.00 0.00 0.00 75 1011.3
20260905013027 73 229 1.0 5.0 0.00 0.00 0.00 74 1011.3
20260905012530 73 263 1.0 5.0 0.00 0.00 0.00 74 1011.3
20260905012032 74 207 2.0 5.0 0.00 0.00 0.00 74 1011.4
20260905011518 74 210 0.0 5.0 0.00 0.00 0.00 74 1011.4
20260905011024 74 228 3.0 5.0 0.00 0.00 0.00 72 1011.4
20260905010522 75 227 3.0 5.0 0.00 0.00 0.00 71 1011.4
20260905010021 76 221 2.0 5.0 0.00 0.00 0.00 70 1011.4
20260905005548 76 223 3.0 6.0 0.00 0.00 0.00 69 1011.4
20260905005027 76 214 2.0 6.0 0.00 0.00 0.00 70 1011.5
20260905004531 76 217 2.0 5.0 0.00 0.00 0.00 69 1011.4
20260905004054 77 205 3.0 6.0 0.00 0.00 0.00 69 1011.4
20260905003539 77 250 4.0 6.0 0.00 0.00 0.00 68 1011.5
20260905003027 77 212 2.0 7.0 0.00 0.00 0.00 69 1011.6
20260905002533 76 215 2.0 7.0 0.00 0.00 0.00 69 1011.6
20260905002042 76 196 4.0 7.0 0.00 0.00 0.00 69 1011.6
20260905001525 77 302 3.0 7.0 0.00 0.00 0.00 69 1011.5
20260905001029 77 267 3.0 7.0 0.00 0.00 0.00 68 1011.6
20260905000532 77 210 4.0 7.0 0.00 0.00 0.00 67 1011.5
20260905000035 77 219 3.0 7.0 0.00 0.00 0.00 67 1011.6
20260904235520 78 286 4.0 7.0 0.00 0.00 0.00 67 1011.7
20260904235023 78 216 3.0 8.0 0.00 0.00 0.00 67 1011.6
20260904234526 78 188 4.0 9.0 0.00 0.00 0.00 67 1011.6
20260904234029 78 244 3.0 9.0 0.00 0.00 0.00 66 1011.7
20260904233532 78 205 4.0 9.0 0.00 0.00 0.00 66 1011.8
20260904233033 78 207 3.0 8.0 0.00 0.00 0.00 65 1011.7
20260904232555 78 202 3.0 7.0 0.00 0.00 0.00 66 1011.7
20260904232055 78 206 4.0 7.0 0.00 0.00 0.00 66 1011.7
20260904231537 79 219 4.0 10.0 0.00 0.00 0.00 65 1011.7
20260904231020 79 253 4.0 10.0 0.00 0.00 0.00 63 1011.7
20260904230525 79 225 3.0 7.0 0.00 0.00 0.00 65 1011.8
20260904230031 79 258 2.0 7.0 0.00 0.00 0.00 65 1011.9
20260904225525 80 257 4.0 8.0 0.00 0.00 0.00 63 1011.8
20260904225046 80 236 3.0 8.0 0.00 0.00 0.00 62 1011.8
20260904224524 80 244 4.0 7.0 0.00 0.00 0.00 62 1011.9
20260904224021 80 236 3.0 7.0 0.00 0.00 0.00 62 1012.0
20260904223520 80 238 3.0 8.0 0.00 0.00 0.00 62 1011.9
20260904223038 80 213 4.0 8.0 0.00 0.00 0.00 62 1012.0
20260904222535 80 271 3.0 8.0 0.00 0.00 0.00 62 1012.1
20260904222035 80 202 4.0 7.0 0.00 0.00 0.00 62 1012.1
20260904221537 80 269 4.0 7.0 0.00 0.00 0.00 62 1012.1
20260904221034 80 209 4.0 7.0 0.00 0.00 0.00 62 1012.1
20260904220532 80 209 4.0 8.0 0.00 0.00 0.00 62 1012.2
20260904220033 80 202 3.0 8.0 0.00 0.00 0.00 62 1012.2
20260904215532 80 203 4.0 8.0 0.00 0.00 0.00 63 1012.1
20260904215033 80 213 4.0 7.0 0.00 0.00 0.00 63 1012.2
20260904214532 79 211 3.0 11.0 0.00 0.00 0.00 63 1012.3
20260904214031 79 233 4.0 11.0 0.00 0.00 0.00 63 1012.3
20260904213534 79 215 5.0 11.0 0.00 0.00 0.00 64 1012.3
20260904213034 79 223 4.0 9.0 0.00 0.00 0.00 63 1012.2
20260904212551 79 202 4.0 8.0 0.00 0.00 0.00 62 1012.3
20260904212026 79 227 4.0 8.0 0.00 0.00 0.00 63 1012.3
20260904211526 79 206 4.0 8.0 0.00 0.00 0.00 64 1012.3
20260904211023 79 194 4.0 8.0 0.00 0.00 0.00 63 1012.4
20260904210538 79 226 5.0 9.0 0.00 0.00 0.00 62 1012.3
20260904210039 80 240 4.0 9.0 0.00 0.00 0.00 61 1012.4
20260904205520 80 225 4.0 9.0 0.00 0.00 0.00 61 1012.5
20260904205039 80 208 3.0 9.0 0.00 0.00 0.00 61 1012.5
20260904204534 80 195 3.0 9.0 0.00 0.00 0.00 61 1012.5
20260904204055 80 243 3.0 9.0 0.00 0.00 0.00 62 1012.5
20260904203532 80 238 3.0 9.0 0.00 0.00 0.00 61 1012.5
20260904203034 80 199 4.0 9.0 0.00 0.00 0.00 62 1012.4
20260904202534 80 212 4.0 8.0 0.00 0.00 0.00 62 1012.5
20260904202030 80 246 4.0 8.0 0.00 0.00 0.00 62 1012.6
20260904201550 80 239 2.0 8.0 0.00 0.00 0.00 63 1012.6
20260904201030 80 193 3.0 8.0 0.00 0.00 0.00 63 1012.6
20260904200530 79 231 4.0 9.0 0.00 0.00 0.00 63 1012.6
20260904200031 79 218 3.0 9.0 0.00 0.00 0.00 64 1012.6
20260904195525 79 192 5.0 8.0 0.00 0.00 0.00 64 1012.5
20260904195024 79 205 4.0 7.0 0.00 0.00 0.00 64 1012.6
20260904194520 79 215 4.0 7.0 0.00 0.00 0.00 64 1012.6
20260904194035 79 260 3.0 7.0 0.00 0.00 0.00 64 1012.6
20260904193529 79 215 3.0 7.0 0.00 0.00 0.00 63 1012.6
20260904193029 79 269 4.0 7.0 0.00 0.00 0.00 63 1012.8
20260904192537 79 198 3.0 7.0 0.00 0.00 0.00 64 1012.9
20260904192037 78 289 2.0 7.0 0.00 0.00 0.00 65 1013.0
20260904191536 78 211 4.0 7.0 0.00 0.00 0.00 65 1013.0
20260904191035 78 233 2.0 8.0 0.00 0.00 0.00 65 1013.1
20260904190536 78 226 3.0 8.0 0.00 0.00 0.00 65 1013.1
20260904190034 79 213 3.0 7.0 0.00 0.00 0.00 64 1013.1
20260904185532 79 237 3.0 10.0 0.00 0.00 0.00 63 1013.2
20260904185030 79 213 3.0 10.0 0.00 0.00 0.00 63 1013.3
20260904184524 79 203 2.0 7.0 0.00 0.00 0.00 64 1013.3
20260904184026 78 236 2.0 7.0 0.00 0.00 0.00 64 1013.4
20260904183529 78 205 2.0 8.0 0.00 0.00 0.00 65 1013.4
20260904183028 78 193 2.0 7.0 0.00 0.00 0.00 65 1013.3
20260904182528 78 209 3.0 7.0 0.00 0.00 0.00 65 1013.4
20260904182034 77 207 3.0 7.0 0.00 0.00 0.00 65 1013.4
20260904181535 77 221 2.0 7.0 0.00 0.00 0.00 66 1013.4
20260904181055 77 211 4.0 7.0 0.00 0.00 0.00 65 1013.4
20260904180536 77 220 3.0 7.0 0.00 0.00 0.00 65 1013.3
20260904180030 77 223 3.0 7.0 0.00 0.00 0.00 65 1013.3
20260904175529 77 245 3.0 7.0 0.00 0.00 0.00 65 1013.4
20260904175030 77 207 2.0 6.0 0.00 0.00 0.00 65 1013.5
20260904174531 78 208 2.0 7.0 0.00 0.00 0.00 64 1013.4
20260904174051 78 186 0.0 7.0 0.00 0.00 0.00 65 1013.4
20260904173533 78 212 1.0 6.0 0.00 0.00 0.00 65 1013.5
20260904173031 77 219 1.0 6.0 0.00 0.00 0.00 65 1013.5
20260904172530 77 244 1.0 7.0 0.00 0.00 0.00 65 1013.5
20260904172032 76 223 1.0 7.0 0.00 0.00 0.00 66 1013.5
20260904171538 76 186 0.0 6.0 0.00 0.00 0.00 67 1013.6
20260904171036 76 203 2.0 6.0 0.00 0.00 0.00 67 1013.5
20260904170530 75 157 1.0 5.0 0.00 0.00 0.00 68 1013.5
20260904170027 75 205 1.0 4.0 0.00 0.00 0.00 68 1013.5
20260904165531 75 203 1.0 5.0 0.00 0.00 0.00 69 1013.4
20260904165033 75 207 1.0 8.0 0.00 0.00 0.00 69 1013.4
20260904164536 75 202 2.0 8.0 0.00 0.00 0.00 68 1013.4
20260904164038 75 211 1.0 4.0 0.00 0.00 0.00 69 1013.4
20260904163537 74 209 0.0 4.0 0.00 0.00 0.00 70 1013.2
20260904163019 73 224 1.0 4.0 0.00 0.00 0.00 71 1013.2
20260904162519 73 20 0.0 0.0 0.00 0.00 0.00 71 1013.1
20260904162020 73 24 0.0 0.0 0.00 0.00 0.00 70 1013.1
20260904161641 73 24 0.0 4.0 0.00 0.00 0.00 70 1013.1
20260904161027 73 24 0.0 4.0 0.00 0.00 0.00 71 1013.1
20260904160526 72 81 0.0 3.0 0.00 0.00 0.00 72 1013.0
20260904160026 72 80 0.0 1.0 0.00 0.00 0.00 74 1012.9
20260904155530 71 80 0.0 2.0 0.00 0.00 0.00 75 1012.9
20260904155028 71 80 0.0 4.0 0.00 0.00 0.00 76 1012.8
20260904154527 71 80 0.0 4.0 0.00 0.00 0.00 77 1012.8
20260904154028 70 79 1.0 5.0 0.00 0.00 0.00 77 1012.8
20260904153531 70 94 1.0 5.0 0.00 0.00 0.00 78 1012.8
20260904153053 70 90 0.0 5.0 0.00 0.00 0.00 77 1012.7
20260904152553 70 91 1.0 5.0 0.00 0.00 0.00 78 1012.7
20260904152032 69 95 1.0 5.0 0.00 0.00 0.00 78 1012.8
20260904151530 69 97 1.0 5.0 0.00 0.00 0.00 80 1012.7
20260904151030 69 67 0.0 4.0 0.00 0.00 0.00 81 1012.7
20260904150550 68 51 1.0 4.0 0.00 0.00 0.00 81 1012.8
20260904150026 68 55 0.0 0.0 0.00 0.00 0.00 82 1012.7
20260904145546 67 52 0.0 0.0 0.00 0.00 0.00 83 1012.6
20260904145045 67 53 0.0 0.0 0.00 0.00 0.00 84 1012.6
20260904144526 67 53 0.0 0.0 0.00 0.00 0.00 84 1012.6
20260904144029 66 56 0.0 0.0 0.00 0.00 0.00 85 1012.6
20260904143530 66 55 0.0 0.0 0.00 0.00 0.00 85 1012.6
20260904143026 66 55 0.0 0.0 0.00 0.00 0.00 85 1012.6
20260904142522 66 56 0.0 0.0 0.00 0.00 0.00 85 1012.5
20260904142023 66 56 0.0 0.0 0.00 0.00 0.00 85 1012.5
20260904141525 65 57 0.0 0.0 0.00 0.00 0.00 86 1012.4
20260904141022 65 57 0.0 0.0 0.00 0.00 0.00 86 1012.4
20260904140524 65 57 0.0 0.0 0.00 0.00 0.00 86 1012.3
20260904140025 65 57 0.0 0.0 0.00 0.00 0.00 86 1012.3
20260904135523 65 58 0.0 0.0 0.00 0.00 0.00 86 1012.3
20260904135020 65 58 0.0 0.0 0.00 0.00 0.00 87 1012.2
20260904134518 64 59 0.0 0.0 0.00 0.00 0.00 87 1012.2
20260904134022 64 59 0.0 0.0 0.00 0.00 0.00 87 1012.1
20260904133545 64 60 0.0 0.0 0.00 0.00 0.00 87 1012.1
20260904133026 64 61 0.0 0.0 0.00 0.00 0.00 87 1012.1
20260904132522 64 61 0.0 0.0 0.00 0.00 0.00 87 1012.0
20260904132020 64 60 0.0 3.0 0.00 0.00 0.00 88 1012.0
20260904131519 64 60 0.0 4.0 0.00 0.00 0.00 87 1011.9
20260904131018 64 61 2.0 4.0 0.00 0.00 0.00 88 1012.0
20260904130521 64 60 0.0 0.0 0.00 0.00 0.00 88 1011.9
20260904130019 64 60 0.0 0.0 0.00 0.00 0.00 88 1011.9
20260904125542 64 60 0.0 0.0 0.00 0.00 0.00 88 1011.9
20260904125024 64 60 0.0 4.0 0.00 0.00 0.00 88 1011.8
20260904124547 64 60 0.0 5.0 0.00 0.00 0.00 88 1011.8
20260904124029 64 60 1.0 5.0 0.00 0.00 0.00 88 1011.8
20260904123533 63 60 2.0 5.0 0.00 0.00 0.00 88 1011.8
20260904123038 63 58 0.0 0.0 0.00 0.00 0.00 88 1011.7
20260904122519 64 58 0.0 0.0 0.00 0.00 0.00 87 1011.7
20260904122024 64 58 0.0 0.0 0.00 0.00 0.00 87 1011.7
20260904121529 64 58 0.0 0.0 0.00 0.00 0.00 87 1011.7
20260904121034 64 57 0.0 0.0 0.00 0.00 0.00 87 1011.7
20260904120535 64 57 0.0 0.0 0.00 0.00 0.00 86 1011.7
20260904120021 64 57 0.0 0.0 0.00 0.00 0.00 86 1011.8
20260904115550 64 59 0.0 0.0 0.00 0.00 0.00 86 1011.8
20260904115034 64 65 0.0 0.0 0.00 0.00 0.00 86 1011.8
20260904114538 64 65 0.0 0.0 0.00 0.00 0.00 86 1011.8
20260904114021 65 65 0.0 0.0 0.00 0.00 0.00 86 1011.9
20260904113527 65 65 0.0 0.0 0.00 0.00 0.00 86 1011.9
20260904113033 65 65 0.0 0.0 0.00 0.00 0.00 86 1011.9
20260904112538 64 64 0.0 0.0 0.00 0.00 0.00 86 1011.9
20260904112021 64 63 0.0 0.0 0.00 0.00 0.00 86 1011.9
20260904111532 64 63 0.0 0.0 0.00 0.00 0.00 87 1011.9
20260904111057 64 64 0.0 0.0 0.00 0.00 0.00 87 1012.0
20260904110519 64 64 0.0 0.0 0.00 0.00 0.00 87 1011.9
20260904110020 64 65 0.0 0.0 0.00 0.00 0.00 87 1011.9
20260904105526 64 65 0.0 0.0 0.00 0.00 0.00 87 1011.9
20260904105030 64 65 0.0 0.0 0.00 0.00 0.00 87 1011.8
20260904104532 64 65 0.0 5.0 0.00 0.00 0.00 87 1011.8
20260904104037 64 65 0.0 5.0 0.00 0.00 0.00 87 1011.7
20260904103519 64 69 2.0 5.0 0.00 0.00 0.00 87 1011.7
20260904103023 64 76 0.0 3.0 0.00 0.00 0.00 88 1011.7
20260904102529 64 76 0.0 3.0 0.00 0.00 0.00 88 1011.7
20260904102030 64 77 0.0 0.0 0.00 0.00 0.00 88 1011.6
20260904101518 64 77 0.0 5.0 0.00 0.00 0.00 88 1011.7
20260904101027 63 78 1.0 5.0 0.00 0.00 0.00 88 1011.6
20260904100530 63 80 2.0 5.0 0.00 0.00 0.00 88 1011.6
20260904100033 63 80 2.0 7.0 0.00 0.00 0.00 88 1011.6
20260904095521 63 69 3.0 7.0 0.00 0.00 0.00 88 1011.6
20260904095022 63 97 1.0 5.0 0.00 0.00 0.00 88 1011.5
20260904094523 63 127 1.0 3.0 0.00 0.00 0.00 88 1011.5
20260904094031 63 128 0.0 3.0 0.00 0.00 0.00 88 1011.6
20260904093519 63 128 0.0 3.0 0.00 0.00 0.00 88 1011.7
20260904093044 63 128 0.0 3.0 0.00 0.00 0.00 88 1011.7
20260904092525 63 128 0.0 2.0 0.00 0.00 0.00 88 1011.7
20260904092029 63 128 0.0 0.0 0.00 0.00 0.00 88 1011.6